W0KHZ Weather Reports


time (UTC)temp
C
wind
direction
speed
KPH
gust
KPH
rain 1hr
cm
rain 24hr
cm
rain mn
cm
humidity
%
barometer
mb
20260904133026 23 0.0 0.0 0.00 0.25 0.08 91 1040.2
20260904132522 23 0.0 0.0 0.00 0.25 0.08 91 1040.0
20260904132020 23 0.0 0.0 0.00 0.28 0.08 91 1040.0
20260904131517 23 0.0 0.0 0.00 0.28 0.08 91 1040.1
20260904131033 23 0.0 0.0 0.00 0.30 0.08 91 1040.0
20260904130530 23 0.0 0.0 0.00 0.33 0.08 91 1040.1
20260904130027 23 0.0 0.0 0.00 0.36 0.08 91 1040.0
20260904125524 23 0.0 0.0 0.00 0.38 0.08 91 1039.8
20260904125022 23 0.0 0.0 0.08 0.38 0.08 91 1039.7
20260904124519 23 0.0 0.0 0.08 0.43 0.08 90 1039.7
20260904124035 23 164 0.0 1.6 0.08 0.43 0.08 90 1039.8
20260904123532 23 164 0.0 1.6 0.08 0.46 0.08 90 1039.7
20260904123109 23 0.0 0.0 0.08 0.48 0.08 90 1039.6
20260904122546 23 0.0 0.0 0.08 0.51 0.08 90 1039.5
20260904122023 23 164 0.0 1.6 0.08 0.51 0.08 90 1039.5
20260904121520 23 0.0 0.0 0.08 0.51 0.08 90 1039.4
20260904121016 23 0.0 0.0 0.08 0.51 0.08 90 1039.5
20260904120533 23 0.0 0.0 0.08 0.51 0.08 90 1039.4
20260904120030 23 0.0 0.0 0.08 0.51 0.08 90 1039.4
20260904115527 23 0.0 0.0 0.05 0.51 0.05 90 1039.5
20260904115044 23 0.0 0.0 0.00 0.46 0.00 90 1039.3
20260904114522 22 0.0 0.0 0.00 0.46 0.00 90 1039.3
20260904114018 22 0.0 0.0 0.00 0.48 0.00 90 1039.4
20260904113535 22 0.0 0.0 0.00 0.48 0.00 90 1039.1
20260904113052 22 0.0 0.0 0.00 0.51 0.00 90 1039.1
20260904112529 22 0.0 0.0 0.00 0.51 0.00 90 1038.9
20260904112026 22 0.0 0.0 0.00 0.56 0.00 90 1038.8
20260904111523 22 0.0 0.0 0.00 0.56 0.00 89 1039.0
20260904111020 23 0.0 0.0 0.00 0.56 0.00 89 1038.8
20260904110518 23 0.0 0.0 0.00 0.56 0.00 89 1038.8
20260904110055 23 0.0 0.0 0.00 0.56 0.00 89 1038.9
20260904105531 23 0.0 0.0 0.00 0.56 0.00 89 1038.9
20260904105029 23 0.0 0.0 0.00 0.56 0.00 89 1038.9
20260904104525 23 0.0 0.0 0.00 0.56 0.00 89 1039.0
20260904104022 23 0.0 0.0 0.00 0.56 0.00 89 1039.1
20260904103520 23 0.0 0.0 0.00 0.56 0.00 89 1039.0
20260904103016 23 0.0 0.0 0.00 0.56 0.00 89 1039.0
20260904102532 23 0.0 0.0 0.00 0.56 0.00 89 1038.9
20260904102029 24 0.0 0.0 0.00 0.56 0.00 89 1038.9
20260904101526 23 0.0 0.0 0.00 0.56 0.00 89 1038.9
20260904101024 23 0.0 0.0 0.00 0.56 0.00 89 1038.9
20260904100521 23 0.0 0.0 0.00 0.56 0.00 89 1038.9
20260904100018 23 0.0 0.0 0.00 0.56 0.00 89 1038.9
20260904095534 23 0.0 0.0 0.00 0.56 0.00 89 1038.9
20260904095031 23 0.0 0.0 0.00 0.56 0.00 89 1039.0
20260904094527 23 0.0 0.0 0.00 0.56 0.00 89 1039.0
20260904094025 23 0.0 0.0 0.00 0.56 0.00 89 1039.1
20260904093522 23 0.0 0.0 0.00 0.56 0.00 89 1039.1
20260904093019 23 0.0 0.0 0.00 0.56 0.00 89 1039.1
20260904092516 23 0.0 0.0 0.00 0.56 0.00 89 1039.0
20260904092032 23 0.0 0.0 0.00 0.56 0.00 89 1038.9
20260904091549 23 0.0 0.0 0.00 0.56 0.00 89 1039.0
20260904091026 23 0.0 0.0 0.00 0.56 0.00 88 1038.9
20260904090524 23 0.0 0.0 0.00 0.56 0.00 88 1038.9
20260904090041 23 0.0 0.0 0.00 0.56 0.00 88 1039.0
20260904085519 23 0.0 0.0 0.00 0.56 0.00 88 1038.9
20260904085056 24 0.0 0.0 0.00 0.56 0.00 88 1038.9
20260904084531 24 0.0 0.0 0.00 0.56 0.00 88 1038.9
20260904084049 24 0.0 0.0 0.00 0.56 0.00 87 1038.8
20260904083526 25 0.0 0.0 0.00 0.56 0.00 87 1038.6
20260904083043 25 0.0 0.0 0.00 0.56 0.00 88 1038.7
20260904082520 25 0.0 0.0 0.00 0.56 0.00 88 1038.5
20260904082017 25 0.0 0.0 0.00 0.56 0.00 88 1038.4
20260904081533 25 0.0 0.0 0.00 0.56 0.00 89 1038.4
20260904081030 25 0.0 0.0 0.00 0.56 0.00 89 1038.4
20260904080527 25 0.0 0.0 0.00 0.56 0.00 90 1038.5
20260904080024 25 0.0 0.0 0.00 0.56 0.00 90 1038.4
20260904075521 25 0.0 0.0 0.00 0.56 0.00 90 1038.4
20260904075018 25 0.0 0.0 0.00 0.56 0.00 90 1038.4
20260904074554 25 0.0 0.0 0.00 0.56 0.00 90 1038.4
20260904074051 25 0.0 0.0 0.00 0.56 0.00 91 1038.5
20260904073528 24 0.0 0.0 0.00 0.56 0.00 91 1038.6
20260904073025 24 0.0 0.0 0.00 0.56 0.00 91 1038.5
20260904072523 24 0.0 0.0 0.00 0.56 0.00 91 1038.6
20260904072040 24 0.0 0.0 0.00 0.56 0.00 90 1038.6
20260904071516 25 0.0 0.0 0.00 0.56 0.00 91 1038.7
20260904071032 25 0.0 0.0 0.00 0.56 0.00 91 1038.7
20260904070529 25 0.0 0.0 0.00 0.56 0.00 91 1038.7
20260904070026 24 0.0 0.0 0.00 0.56 0.00 91 1038.8
20260904065523 24 0.0 0.0 0.00 0.56 0.00 91 1038.8
20260904065020 24 0.0 0.0 0.00 0.56 0.00 91 1038.8
20260904064537 24 0.0 0.0 0.00 0.56 0.00 91 1038.9
20260904064033 24 0.0 0.0 0.00 0.56 0.00 91 1038.8
20260904063530 24 0.0 0.0 0.00 0.56 0.00 91 1038.8
20260904063027 23 0.0 0.0 0.00 0.56 0.00 91 1038.9
20260904062524 23 0.0 0.0 0.00 0.56 0.00 91 1039.1
20260904062021 23 0.0 0.0 0.00 0.56 0.00 91 1039.1
20260904061519 23 0.0 0.0 0.00 0.56 0.00 91 1039.1
20260904061035 23 0.0 0.0 0.00 0.56 0.00 91 1039.2
20260904060531 23 0.0 0.0 0.00 0.56 0.00 91 1039.2
20260904060028 23 0.0 0.0 0.00 0.56 0.00 91 1039.3
20260904055525 23 0.0 0.0 0.00 0.56 0.00 91 1039.3
20260904055022 23 0.0 0.0 0.00 0.56 0.00 91 1039.4
20260904054520 23 0.0 0.0 0.00 0.56 0.00 91 1039.5
20260904054037 23 0.0 0.0 0.00 0.56 0.00 91 1039.5
20260904053533 23 0.0 0.0 0.00 0.56 0.00 91 1039.5
20260904053030 23 0.0 0.0 0.00 0.56 0.00 91 1039.5
20260904052527 23 0.0 0.0 0.00 0.56 0.00 91 1039.5
20260904052025 23 0.0 0.0 0.00 0.56 0.00 91 1039.4
20260904051522 23 0.0 0.0 0.00 0.56 0.00 91 1039.6
20260904051019 23 0.0 0.0 0.00 0.56 0.00 91 1039.4
20260904050516 23 0.0 0.0 0.00 0.56 0.00 91 1039.5
20260904050032 23 0.0 0.0 0.00 0.56 0.56 91 1039.6
20260904045529 23 0.0 0.0 0.00 0.56 0.56 91 1039.5
20260904045046 23 0.0 0.0 0.00 0.56 0.56 91 1039.6
20260904044523 23 0.0 0.0 0.00 0.56 0.56 91 1039.7
20260904044021 23 0.0 0.0 0.00 0.56 0.56 91 1039.6
20260904043518 23 0.0 0.0 0.00 0.56 0.56 91 1039.6
20260904043034 23 0.0 0.0 0.00 0.56 0.56 91 1039.6
20260904042531 23 0.0 0.0 0.00 0.56 0.56 91 1039.7
20260904042048 23 0.0 0.0 0.00 0.56 0.56 91 1039.7
20260904041525 23 0.0 0.0 0.00 0.56 0.56 91 1039.6
20260904041022 23 0.0 0.0 0.00 0.56 0.56 90 1039.6
20260904040519 23 0.0 0.0 0.00 0.56 0.56 91 1039.6
20260904040035 23 0.0 0.0 0.00 0.56 0.56 90 1039.7
20260904035532 23 164 0.0 1.6 0.00 0.56 0.56 90 1039.7
20260904035029 23 164 0.0 1.6 0.00 0.56 0.56 90 1039.6
20260904034526 23 0.0 0.0 0.00 0.56 0.56 90 1039.7
20260904034023 23 0.0 0.0 0.00 0.56 0.56 90 1039.6
20260904033520 23 164 0.0 3.2 0.00 0.56 0.56 90 1039.5
20260904033037 23 0.0 0.0 0.00 0.56 0.56 90 1039.5
20260904032533 23 0.0 0.0 0.00 0.56 0.56 90 1039.3
20260904032030 23 0.0 0.0 0.00 0.56 0.56 90 1039.4
20260904031547 23 0.0 0.0 0.00 0.56 0.56 90 1039.5
20260904031024 23 0.0 0.0 0.00 0.56 0.56 90 1039.6
20260904030521 23 0.0 0.0 0.00 0.56 0.56 90 1039.6
20260904030038 23 0.0 0.0 0.00 0.56 0.56 90 1039.8
20260904025534 23 0.0 0.0 0.00 0.56 0.56 90 1039.8
20260904025031 23 0.0 0.0 0.00 0.56 0.56 89 1039.8
20260904024528 23 0.0 0.0 0.00 0.56 0.56 89 1039.8
20260904024025 23 0.0 0.0 0.00 0.56 0.56 89 1039.9
20260904023521 23 0.0 0.0 0.00 0.56 0.56 89 1039.9
20260904023019 23 0.0 0.0 0.00 0.56 0.56 89 1039.8
20260904022535 23 0.0 0.0 0.00 0.56 0.56 89 1039.7
20260904022032 23 0.0 0.0 0.00 0.56 0.56 89 1039.5
20260904021529 23 0.0 0.0 0.00 0.56 0.56 88 1039.5
20260904021026 23 164 0.0 1.6 0.00 0.56 0.56 88 1039.5
20260904020523 23 0.0 0.0 0.00 0.56 0.56 88 1039.4
20260904020020 23 0.0 0.0 0.00 0.56 0.56 88 1039.4
20260904015517 23 0.0 0.0 0.00 0.56 0.56 88 1039.4
20260904015034 23 0.0 0.0 0.00 0.56 0.56 88 1039.3
20260904014531 23 0.0 0.0 0.00 0.56 0.56 87 1039.4
20260904014029 23 0.0 0.0 0.00 0.56 0.56 87 1039.3
20260904013526 23 0.0 0.0 0.00 0.56 0.56 87 1039.3
20260904013023 24 0.0 0.0 0.00 0.56 0.56 87 1039.3
20260904012520 24 0.0 0.0 0.00 0.56 0.56 87 1039.2
20260904012017 24 164 0.0 1.6 0.00 0.56 0.56 86 1039.1
20260904011553 24 0.0 0.0 0.00 0.56 0.56 86 1039.1
20260904011030 24 0.0 0.0 0.00 0.56 0.56 86 1039.0
20260904010527 25 164 0.0 1.6 0.00 0.56 0.56 85 1038.9
20260904010104 25 0.0 0.0 0.00 0.56 0.56 85 1038.8
20260904005522 25 0.0 0.0 0.00 0.56 0.56 85 1038.8
20260904005039 25 0.0 0.0 0.00 0.56 0.56 84 1038.8
20260904004536 25 0.0 0.0 0.00 0.56 0.56 84 1038.9
20260904004032 25 0.0 0.0 0.00 0.56 0.56 83 1038.9
20260904003530 26 0.0 0.0 0.00 0.56 0.56 83 1038.9
20260904003027 26 0.0 0.0 0.00 0.56 0.56 83 1038.7
20260904002524 26 0.0 0.0 0.00 0.56 0.56 82 1038.7
20260904002041 26 0.0 0.0 0.00 0.56 0.56 82 1038.9
20260904001518 26 164 0.0 3.2 0.00 0.56 0.56 82 1038.9
20260904001035 26 163 0.0 1.6 0.00 0.56 0.56 82 1038.9
20260904000532 26 163 0.0 3.2 0.00 0.56 0.56 81 1038.8
20260904000049 27 163 0.0 1.6 0.00 0.56 0.56 81 1038.9
20260903235526 27 163 1.6 4.8 0.00 0.56 0.56 81 1038.8
20260903235024 27 163 0.0 1.6 0.00 0.56 0.56 80 1038.9
20260903234523 27 0.0 0.0 0.00 0.56 0.56 80 1039.1
20260903234018 27 0.0 0.0 0.00 0.56 0.56 80 1039.1
20260903233533 27 163 0.0 1.6 0.00 0.56 0.56 80 1039.1
20260903233030 27 163 0.0 3.2 0.00 0.56 0.56 79 1039.2
20260903232527 27 163 0.0 1.6 0.00 0.56 0.56 80 1039.1
20260903232025 27 163 1.6 4.8 0.00 0.56 0.56 79 1039.1
20260903231522 27 164 0.0 1.6 0.00 0.56 0.56 79 1039.1
20260903231019 27 164 1.6 4.8 0.00 0.56 0.56 79 1039.3
20260903230555 27 163 0.0 1.6 0.00 0.56 0.56 78 1039.1
20260903230052 27 163 0.0 3.2 0.00 0.56 0.56 77 1039.1
20260903225529 27 163 1.6 3.2 0.00 0.56 0.56 77 1038.9
20260903225026 27 163 1.6 4.8 0.00 0.56 0.56 78 1039.1
20260903224543 27 159 1.6 6.4 0.00 0.56 0.56 78 1039.1
20260903224040 27 151 0.0 1.6 0.00 0.56 0.56 78 1039.1
20260903223517 27 151 0.0 1.6 0.00 0.56 0.56 77 1039.2
20260903223033 27 151 0.0 3.2 0.00 0.56 0.56 77 1039.1
20260903222530 27 150 1.6 3.2 0.00 0.56 0.56 76 1039.0
20260903222027 27 140 1.6 3.2 0.00 0.56 0.56 76 1039.1
20260903221524 28 158 3.2 6.4 0.00 0.56 0.56 76 1039.1
20260903221022 28 129 1.6 4.8 0.00 0.56 0.56 75 1039.2
20260903220519 28 123 1.6 3.2 0.00 0.56 0.56 76 1039.2
20260903220035 28 166 1.6 4.8 0.00 0.56 0.56 75 1039.2
20260903215531 28 157 1.6 6.4 0.00 0.56 0.56 75 1039.3
20260903215029 28 159 3.2 9.7 0.00 0.56 0.56 74 1039.3
20260903214526 28 164 1.6 6.4 0.00 0.56 0.56 74 1039.4
20260903214023 28 161 3.2 9.7 0.00 0.56 0.56 74 1039.4
20260903213520 28 153 1.6 6.4 0.00 0.56 0.56 74 1039.3
20260903213017 28 140 1.6 4.8 0.00 0.56 0.56 74 1039.6
20260903212533 28 152 1.6 3.2 0.00 0.56 0.56 74 1039.8
20260903212030 28 152 1.6 4.8 0.00 0.56 0.56 74 1039.8
20260903211527 28 152 1.6 4.8 0.00 0.56 0.56 75 1039.7
20260903211044 28 147 3.2 9.7 0.00 0.56 0.56 76 1039.7
20260903210521 28 159 3.2 9.7 0.00 0.56 0.56 77 1039.7
20260903210038 27 119 1.6 6.4 0.00 0.56 0.56 78 1039.8
20260903205534 27 117 1.6 4.8 0.00 0.56 0.56 78 1040.0
20260903205051 27 115 1.6 3.2 0.00 0.56 0.56 79 1040.0
20260903204548 27 110 1.6 4.8 0.00 0.56 0.56 78 1039.8
20260903204025 27 101 1.6 4.8 0.00 0.56 0.56 78 1039.8
20260903203522 27 101 1.6 6.4 0.00 0.56 0.56 78 1039.8
20260903203019 27 147 3.2 11.3 0.00 0.56 0.56 78 1039.8
20260903202517 27 183 1.6 4.8 0.00 0.56 0.56 78 1039.8
20260903202032 27 191 0.0 1.6 0.00 0.56 0.56 78 1040.0
20260903201530 27 191 0.0 1.6 0.00 0.56 0.56 78 1040.1
20260903201047 27 0.0 0.0 0.00 0.56 0.56 78 1039.9
20260903200524 27 191 0.0 1.6 0.00 0.56 0.56 78 1039.9
20260903200021 27 191 0.0 1.6 0.00 0.56 0.56 77 1040.0
20260903195518 27 0.0 0.0 0.00 0.56 0.56 76 1040.0
20260903195034 27 182 1.6 9.7 0.00 0.56 0.56 77 1040.1
20260903194531 27 158 1.6 3.2 0.00 0.56 0.56 76 1040.1
20260903194028 27 157 3.2 6.4 0.00 0.56 0.56 77 1040.1
20260903193525 27 143 1.6 4.8 0.00 0.56 0.56 78 1040.2
20260903193022 27 143 0.0 1.6 0.00 0.56 0.56 79 1040.4
20260903192519 27 149 1.6 6.4 0.00 0.56 0.56 79 1040.6
20260903192016 27 180 1.6 11.3 0.00 0.56 0.56 81 1040.6
20260903191552 27 187 0.0 1.6 0.00 0.56 0.56 82 1040.7
20260903191029 27 187 0.0 1.6 0.00 0.56 0.56 81 1040.9
20260903190526 27 0.0 0.0 0.00 0.56 0.56 81 1040.9
20260903185540 27 0.0 0.0 0.00 0.56 0.56 80 1040.6
20260903185017 27 187 1.6 3.2 0.00 0.56 0.56 80 1040.5
20260903184533 26 187 0.0 1.6 0.00 0.56 0.56 80 1040.4
20260903184050 26 184 3.2 9.7 0.00 0.56 0.56 80 1040.4
20260903183528 26 155 1.6 4.8 0.00 0.56 0.56 81 1040.1
20260903183024 26 148 1.6 6.4 0.00 0.56 0.56 82 1040.1
20260903182521 26 162 3.2 9.7 0.00 0.56 0.56 82 1040.1
20260903182039 26 157 3.2 11.3 0.00 0.56 0.56 82 1040.1
20260903181537 26 172 0.0 6.4 0.00 0.56 0.56 82 1040.3
20260903181033 26 172 1.6 4.8 0.00 0.56 0.56 83 1040.4
20260903180530 25 172 1.6 4.8 0.00 0.56 0.56 84 1040.4
20260903180048 25 172 0.0 4.8 0.00 0.56 0.56 83 1040.6
20260903175525 25 172 1.6 4.8 0.00 0.56 0.56 84 1040.6
20260903175022 25 189 1.6 6.4 0.00 0.56 0.56 85 1040.5
20260903174539 25 203 0.0 1.6 0.00 0.56 0.56 86 1040.5
20260903174016 25 203 0.0 3.2 0.00 0.56 0.56 87 1040.5
20260903173532 24 203 0.0 4.8 0.00 0.56 0.56 88 1040.7
20260903173028 24 203 0.0 1.6 0.00 0.56 0.56 87 1040.8
20260903172526 23 203 0.0 3.2 0.00 0.56 0.56 88 1040.8
20260903172023 23 203 0.0 1.6 0.00 0.56 0.56 89 1040.5
20260903171520 23 203 0.0 6.4 0.00 0.56 0.56 91 1040.3
20260903171018 22 0.0 0.0 0.03 0.56 0.56 92 1040.5
20260903170533 22 190 0.0 3.2 0.05 0.56 0.56 92 1040.4
20260903170030 22 0.0 0.0 0.05 0.56 0.56 92 1040.3
20260903165527 22 183 0.0 1.6 0.05 0.56 0.56 92 1040.7
20260903165024 21 0.0 0.0 0.05 0.56 0.56 92 1040.9
20260903164521 21 0.0 0.0 0.05 0.56 0.56 92 1040.8
20260903164018 21 183 0.0 3.2 0.08 0.56 0.56 92 1040.6
20260903163534 21 183 1.6 9.7 0.10 0.56 0.56 92 1040.3
20260903163050 21 159 3.2 6.4 0.10 0.56 0.56 92 1040.5
20260903162527 21 181 0.0 4.8 0.10 0.56 0.56 92 1040.7
20260903162024 21 215 0.0 3.2 0.13 0.56 0.56 92 1040.8
20260903161522 21 0.0 0.0 0.13 0.56 0.56 92 1041.6
20260903161019 21 0.0 0.0 0.10 0.53 0.53 92 1042.0
20260903160516 21 0.0 0.0 0.13 0.51 0.51 92 1041.7
20260903160032 21 0.0 0.0 0.13 0.51 0.51 92 1041.5
20260903155529 21 0.0 0.0 0.13 0.51 0.51 92 1041.7
20260903155026 21 224 0.0 1.6 0.10 0.51 0.51 92 1041.2
20260903154523 21 229 1.6 3.2 0.10 0.51 0.51 92 1040.9
20260903154040 21 0.0 0.0 0.08 0.48 0.48 92 1041.0
20260903153517 21 246 0.0 1.6 0.05 0.46 0.46 92 1040.9
20260903153033 21 246 0.0 3.2 0.05 0.46 0.46 92 1041.1
20260903152530 21 247 0.0 3.2 0.05 0.46 0.46 92 1041.5
20260903152026 21 265 0.0 4.8 0.03 0.43 0.43 92 1041.3
20260903151524 21 89 0.0 1.6 0.03 0.43 0.43 92 1040.3
20260903151021 21 0.0 0.0 0.03 0.43 0.43 92 1040.3
20260903150518 21 0.0 0.0 0.00 0.41 0.41 92 1040.8
20260903150035 21 0.0 0.0 0.00 0.41 0.41 92 1040.8
20260903145531 21 0.0 0.0 0.00 0.41 0.41 92 1040.4
20260903145029 21 0.0 0.0 0.00 0.41 0.41 92 1040.4
20260903144525 21 0.0 0.0 0.00 0.41 0.41 92 1040.4
20260903144022 21 0.0 0.0 0.00 0.41 0.41 92 1040.3
20260903143539 21 0.0 0.0 0.03 0.41 0.41 92 1040.6
20260903143016 21 0.0 0.0 0.03 0.41 0.41 92 1040.6
20260903142532 20 0.0 0.0 0.03 0.41 0.41 92 1040.5
20260903142030 20 0.0 0.0 0.05 0.41 0.41 92 1040.9
20260903141527 20 0.0 0.0 0.05 0.41 0.41 92 1041.0
20260903141025 20 0.0 0.0 0.08 0.41 0.41 92 1041.0
20260903140542 20 0.0 0.0 0.10 0.41 0.41 92 1041.0
20260903140019 20 0.0 0.0 0.10 0.38 0.38 92 1041.2
20260903135517 20 0.0 0.0 0.13 0.38 0.38 92 1041.0
20260903135033 20 0.0 0.0 0.15 0.38 0.38 92 1041.5
20260903134530 20 0.0 0.0 0.18 0.38 0.38 92 1041.2
20260903134028 20 0.0 0.0 0.20 0.38 0.38 92 1041.3
20260903133525 20 0.0 0.0 0.20 0.38 0.38 92 1041.4